STARLINK-33650, 63321

Orbit data source: Space-Track

STARLINK-33650, 63321 is a payload satellite owned by SpaceX/Seattle (US) in LEO that was launched on Tue, 18 Mar 2025 UTC via an FALCON 9 launch vehicle from the Air Force Eastern Test Range (AFETR). Payload-class satellites include a variety of spacecraft equipped with specific instruments for various scientific and technological missions. These include communications satellites like Starlink; space stations such as the ISS; scientific satellites like the Hubble; Earth observation satellites from companies like Planet Labs, Umbra, and HawkEye 360; GPS; miniature CubeSats for education and research; and military/defense satellites.

Loading next visibility...
Identifier
63321, 2025-057Q
Orbit
LEO
Last TLE update
12 hours ago
Origin
Manufacturer
SpaceX/Seattle
Mission
Operational Commercial Communications
Bus & Motor
STARLINK V2MO, Unknown motor
Mass
575 kg wet, ~530 kg dry
Launch date (UTC)
2025-03-18 (4 months ago)
Launch vehicle
FALCON 9
Launch site
Air Force Eastern Test Range (AFETR)
Object type
Payload
Rocket body
Debris
Shape & HBR
Box + 1 Pan, 29 m
Radar Cross Section
41.120 m², Large (>1 m²)

Expand to show TLE details & history

TLE from 12 hours ago
0 STARLINK-33650
1 63321U 25057Q   25188.77583014  .00020187  00000-0  74058-3 0  9998
2 63321  43.0019 333.7689 0001194 257.6521 102.4197 15.27602266 18286
Epoch: 2025-07-07T18:37Z
TLE epoch observation values (Epoch: 2025-07-07T18:37:11.724Z)
Latitude
-0°
Longitude
128.48972°
Altitude
482.934 km
Speed
7.626 km/s
True Right ascension
22h 15m 04s
True Declination
0° 00' 00"
Sunlit
Object was in full shadow at epoch
Visualization orbit readout
Latitude
-12.74443°
Longitude
111.59692°
Altitude
485.075 km
Speed
7.624 km/s
Apparent Right ascension
00h 05m 59s
Apparent Declination
-58° 40' 14"
Sunlit
Object is in full shadow
Visualization observer readout
Local Sidereal Time
19:11:01
Azimuth
146.303° SSE
Elevation
-25.879°
Doppler factor
1
Orbital elements
Apogee altitude
485.747 km
Perigee altitude
484.108 km
Semi-major axis
6,863.064 km
Eccentricity
0.00012
Inclination
43.0019°
RAAN
333.7689°
Arg. of periapsis
257.6521°
True anomaly
Unknown
Mean anomaly
102.4197°
Eccentric anomaly
Unknown
Mean motion
3.81739 °/min
Orbital period
94.31 mins
BSTAR
0.00074058
Loading maneuver chart data...
Loading SW <> Apogee altitude chart data...
Loading historical data...
Loading historical data...
Loading historical data...
Loading historical data...
Loading historical data...
Loading historical data...
Loading historical data...

STARLINK-33650 Visibility forecast

Observer location: undefined°, undefined°

Span
Click to sort rows by Start time (UTC) header in descending order
Start Az.
Max El. time (UTC)
Max El. Az.
Max El.
End time (UTC)
End Az.
4 mins2025-07-08 12:03:31.214Z182.463° SSW2025-07-08 12:05:31.214Z149.728° SSE15.782°2025-07-08 12:07:31.214Z112.531° SE
5 mins2025-07-08 13:42:31.214Z237.117° WSW2025-07-08 13:44:31.214Z136.238° SSE43.411°2025-07-08 13:47:31.214Z74.807° E
5 mins2025-07-08 15:21:31.214Z288.054° WNW2025-07-08 15:23:31.214Z0.74° NNE38.587°2025-07-08 15:26:31.214Z71.299° E
5 mins2025-07-08 17:00:31.214Z294.215° NW2025-07-08 17:02:31.214Z356.842° N42.9°2025-07-08 17:05:31.214Z95.752° ESE
5 mins2025-07-08 18:39:31.214Z263.037° W2025-07-08 18:41:31.214Z207.796° SW30.082°2025-07-08 18:44:31.214Z145.521° SSE
|